When you browse on this site, cookies collect data to enhance your experience and personalize the content and advertising you see.
Visit our Privacy Policy to learn more. By continuing to use the site, you agree to this use of cookies and data.
  • Em Portugal
  • Lista de países
  • Para 7 dias
  • Temperatura da água
  • Mapas de satélite
  • Mapa do tempo
  • Widgets de tempo
  • user-avatar
    Iniciar Sessão

    Previsão horária em Igrah

    Hoje, 26 Junho, Quarta-feira

    Tempo Temperatura Precipitação Vento Pressão Humidade
    00:00 +15°C° 0 mm 1 m/s 616 mmHg 62%
    01:00 +14°C° 0 mm 1 m/s 616 mmHg 62%
    02:00 +14°C° 0 mm 1 m/s 616 mmHg 62%
    03:00 +14°C° 0 mm 1 m/s 615 mmHg 62%
    04:00 +15°C° 0 mm 1 m/s 616 mmHg 61%
    05:00 +18°C° 0 mm 1 m/s 617 mmHg 61%
    06:00 +19°C° 0 mm 1 m/s 618 mmHg 60%
    07:00 +20°C° 0 mm 1 m/s 618 mmHg 57%
    08:00 +22°C° 0 mm 1 m/s 619 mmHg 54%
    09:00 +23°C° 0 mm 2 m/s 619 mmHg 51%
    10:00 +23°C° 0.4 mm 2 m/s 619 mmHg 53%
    11:00 +24°C° 0.4 mm 3 m/s 619 mmHg 55%
    12:00 +24°C° 0.4 mm 3 m/s 620 mmHg 58%
    13:00 +24°C° 0.9 mm 3 m/s 619 mmHg 60%
    14:00 +22°C° 0.9 mm 3 m/s 619 mmHg 62%
    15:00 +23°C° 0.9 mm 2 m/s 619 mmHg 64%
    16:00 +21°C° 0.7 mm 2 m/s 618 mmHg 68%
    17:00 +20°C° 0.7 mm 2 m/s 618 mmHg 72%
    18:00 +19°C° 0.7 mm 2 m/s 617 mmHg 76%
    19:00 +19°C° 0.2 mm 1 m/s 617 mmHg 78%
    20:00 +16°C° 0.2 mm 1 m/s 616 mmHg 81%
    21:00 +14°C° 0.2 mm 0 m/s 616 mmHg 84%
    22:00 +13°C° 0.1 mm 0 m/s 615 mmHg 85%
    23:00 +13°C° 0.1 mm 0 m/s 615 mmHg 87%

    Amanhã, 27 Junho, Quinta-feira

    Tempo Temperatura Precipitação Vento Pressão Humidade
    00:00 +13°C° 0.1 mm 0 m/s 615 mmHg 89%
    01:00 +13°C° 0 mm 1 m/s 615 mmHg 86%
    02:00 +13°C° 0 mm 1 m/s 615 mmHg 84%
    03:00 +13°C° 0 mm 1 m/s 614 mmHg 81%
    04:00 +14°C° 0 mm 1 m/s 615 mmHg 78%
    05:00 +16°C° 0 mm 1 m/s 615 mmHg 75%
    06:00 +18°C° 0 mm 1 m/s 616 mmHg 73%
    07:00 +19°C° 0.2 mm 1 m/s 616 mmHg 71%
    08:00 +19°C° 0.2 mm 2 m/s 617 mmHg 70%
    09:00 +20°C° 0.2 mm 2 m/s 617 mmHg 69%
    10:00 +20°C° 0.8 mm 2 m/s 617 mmHg 73%
    11:00 +19°C° 0.8 mm 2 m/s 616 mmHg 77%
    12:00 +19°C° 0.8 mm 2 m/s 616 mmHg 81%
    13:00 +19°C° 0.8 mm 2 m/s 615 mmHg 80%
    14:00 +19°C° 0.8 mm 2 m/s 615 mmHg 79%
    15:00 +19°C° 0.8 mm 2 m/s 615 mmHg 78%
    16:00 +20°C° 0.5 mm 1 m/s 614 mmHg 80%
    17:00 +19°C° 0.5 mm 1 m/s 614 mmHg 81%
    18:00 +19°C° 0.5 mm 1 m/s 614 mmHg 83%
    19:00 +18°C° 0.1 mm 1 m/s 613 mmHg 85%
    20:00 +15°C° 0.1 mm 1 m/s 613 mmHg 87%
    21:00 +14°C° 0.1 mm 1 m/s 613 mmHg 88%
    22:00 +14°C° 0 mm 1 m/s 612 mmHg 88%
    23:00 +14°C° 0 mm 1 m/s 612 mmHg 87%

    Depois de amanhã, 28 Junho, Sexta-feira

    Tempo Temperatura Precipitação Vento Pressão Humidade
    00:00 +13°C° 0 mm 1 m/s 611 mmHg 86%
    01:00 +13°C° 0 mm 1 m/s 611 mmHg 85%
    02:00 +13°C° 0 mm 1 m/s 611 mmHg 84%
    03:00 +13°C° 0 mm 2 m/s 611 mmHg 83%
    04:00 +14°C° 0 mm 2 m/s 611 mmHg 82%
    05:00 +15°C° 0 mm 1 m/s 611 mmHg 80%
    06:00 +16°C° 0 mm 1 m/s 612 mmHg 79%
    07:00 +19°C° 0 mm 1 m/s 612 mmHg 73%
    08:00 +20°C° 0 mm 1 m/s 612 mmHg 67%
    09:00 +22°C° 0 mm 1 m/s 613 mmHg 61%
    10:00 +21°C° 0.5 mm 2 m/s 612 mmHg 63%
    11:00 +21°C° 0.5 mm 2 m/s 612 mmHg 65%
    12:00 +21°C° 0.5 mm 2 m/s 612 mmHg 67%
    13:00 +21°C° 1.1 mm 2 m/s 612 mmHg 66%
    14:00 +21°C° 1.1 mm 2 m/s 611 mmHg 65%
    15:00 +21°C° 1.1 mm 2 m/s 611 mmHg 63%
    16:00 +21°C° 0.5 mm 2 m/s 610 mmHg 67%
    17:00 +20°C° 0.5 mm 2 m/s 610 mmHg 70%
    18:00 +20°C° 0.5 mm 1 m/s 609 mmHg 74%
    19:00 +18°C° 0 mm 2 m/s 609 mmHg 76%
    20:00 +17°C° 0 mm 2 m/s 609 mmHg 78%
    21:00 +15°C° 0 mm 2 m/s 609 mmHg 80%
    22:00 +15°C° 0 mm 2 m/s 608 mmHg 80%
    23:00 +15°C° 0 mm 2 m/s 608 mmHg 80%

    29 Junho, Sábado

    Tempo Temperatura Precipitação Vento Pressão Humidade
    00:00 +15°C° 0 mm 2 m/s 608 mmHg 79%
    01:00 +15°C° 0 mm 2 m/s 608 mmHg 78%
    02:00 +15°C° 0 mm 2 m/s 608 mmHg 77%
    03:00 +16°C° 0 mm 1 m/s 608 mmHg 76%
    04:00 +16°C° 0 mm 1 m/s 608 mmHg 76%
    05:00 +16°C° 0 mm 1 m/s 609 mmHg 77%
    06:00 +18°C° 0 mm 1 m/s 609 mmHg 77%
    07:00 +19°C° 0.1 mm 1 m/s 609 mmHg 73%
    08:00 +19°C° 0.1 mm 2 m/s 610 mmHg 69%
    09:00 +21°C° 0.1 mm 2 m/s 610 mmHg 65%
    10:00 +21°C° 0.9 mm 2 m/s 610 mmHg 67%
    11:00 +21°C° 0.9 mm 3 m/s 610 mmHg 69%
    12:00 +21°C° 0.9 mm 3 m/s 610 mmHg 71%
    13:00 +20°C° 1.5 mm 3 m/s 610 mmHg 74%
    14:00 +20°C° 1.5 mm 2 m/s 610 mmHg 76%
    15:00 +20°C° 1.5 mm 2 m/s 610 mmHg 78%
    16:00 +19°C° 1.3 mm 2 m/s 610 mmHg 80%
    17:00 +18°C° 1.3 mm 2 m/s 610 mmHg 82%
    18:00 +19°C° 1.3 mm 1 m/s 609 mmHg 84%
    19:00 +18°C° 0.7 mm 1 m/s 610 mmHg 88%
    20:00 +16°C° 0.7 mm 1 m/s 610 mmHg 92%
    21:00 +15°C° 0.7 mm 1 m/s 610 mmHg 96%
    22:00 +15°C° 3.9 mm 1 m/s 610 mmHg 96%
    23:00 +15°C° 3.9 mm 1 m/s 610 mmHg 95%

    30 Junho, Domingo

    Tempo Temperatura Precipitação Vento Pressão Humidade
    00:00 +15°C° 3.9 mm 1 m/s 610 mmHg 95%
    01:00 +14°C° 0.3 mm 1 m/s 610 mmHg 94%
    02:00 +14°C° 0.3 mm 1 m/s 610 mmHg 94%
    03:00 +12°C° 0.3 mm 0 m/s 610 mmHg 94%
    04:00 +14°C° 0 mm 1 m/s 610 mmHg 93%
    05:00 +14°C° 0 mm 1 m/s 610 mmHg 92%
    06:00 +14°C° 0 mm 1 m/s 611 mmHg 91%
    07:00 +15°C° 0.1 mm 1 m/s 611 mmHg 89%
    08:00 +16°C° 0.1 mm 2 m/s 611 mmHg 87%
    09:00 +16°C° 0.1 mm 2 m/s 611 mmHg 85%
    10:00 +17°C° 0.3 mm 3 m/s 612 mmHg 84%
    11:00 +17°C° 0.3 mm 3 m/s 612 mmHg 84%
    12:00 +17°C° 0.3 mm 3 m/s 612 mmHg 84%
    13:00 +17°C° 0.5 mm 3 m/s 611 mmHg 84%
    14:00 +17°C° 0.5 mm 3 m/s 611 mmHg 85%
    15:00 +17°C° 0.5 mm 2 m/s 611 mmHg 85%
    16:00 +17°C° 0.4 mm 2 m/s 611 mmHg 87%
    17:00 +16°C° 0.4 mm 2 m/s 611 mmHg 89%
    18:00 +16°C° 0.4 mm 1 m/s 611 mmHg 91%
    19:00 +15°C° 0.4 mm 2 m/s 611 mmHg 93%
    20:00 +15°C° 0.4 mm 2 m/s 612 mmHg 95%
    21:00 +14°C° 0.4 mm 2 m/s 612 mmHg 98%
    22:00 +14°C° 1.4 mm 2 m/s 612 mmHg 98%
    23:00 +14°C° 1.4 mm 2 m/s 612 mmHg 98%

    1 Julho, Segunda-feira

    Tempo Temperatura Precipitação Vento Pressão Humidade
    00:00 +14°C° 1.4 mm 2 m/s 612 mmHg 98%
    01:00 +13°C° 2.6 mm 2 m/s 612 mmHg 98%
    02:00 +13°C° 2.6 mm 2 m/s 612 mmHg 98%
    03:00 +12°C° 2.6 mm 2 m/s 611 mmHg 98%
    04:00 +12°C° 2 mm 2 m/s 611 mmHg 98%
    05:00 +12°C° 2 mm 2 m/s 611 mmHg 98%
    06:00 +12°C° 2 mm 2 m/s 611 mmHg 98%
    07:00 +10°C° 2.1 mm 2 m/s 611 mmHg 98%
    08:00 +10°C° 2.1 mm 2 m/s 611 mmHg 98%
    09:00 +10°C° 2.1 mm 3 m/s 612 mmHg 98%
    10:00 +10°C° 2.5 mm 3 m/s 612 mmHg 98%
    11:00 +10°C° 2.5 mm 3 m/s 612 mmHg 98%
    12:00 +10°C° 2.5 mm 3 m/s 612 mmHg 98%
    13:00 +10°C° 1.5 mm 2 m/s 612 mmHg 98%
    14:00 +10°C° 1.5 mm 2 m/s 612 mmHg 97%
    15:00 +10°C° 1.5 mm 2 m/s 612 mmHg 97%
    16:00 +10°C° 1.6 mm 2 m/s 612 mmHg 98%
    17:00 +10°C° 1.6 mm 2 m/s 612 mmHg 98%
    18:00 +9°C° 1.6 mm 2 m/s 612 mmHg 98%
    19:00 +10°C° 3.5 mm 1 m/s 612 mmHg 98%
    20:00 +10°C° 3.5 mm 1 m/s 612 mmHg 98%
    21:00 +9°C° 3.5 mm 1 m/s 612 mmHg 98%
    22:00 +9°C° 4 mm 1 m/s 612 mmHg 98%
    23:00 +9°C° 4 mm 1 m/s 612 mmHg 98%
    Mostrar mais